RH
20 13 11 13 14 21 18 13 18 15 14 16 12 11 9 5 5 4 4 4 5 7 6 5 4 7 6 6 7 15 35 38 39 48 53 56 58 64 64 64 68 69 77 66 47 48 48 49 53 61 74 78 77 80 75 67 52 37 40 47 49 50 52 60 69 72 71 71 68 61 54 48 42 42 51 67 80 84 88 90 87 84 82 78 79 84 85 85 86 90 92 92 93 92 92 88 89
17 16 19 24 19 21 16 10 18 17 15 15 11 9 8 7 5 4 4 4 7 10 7 6 7 7 7 7 6 13 32 39 39 47 48 48 57 65 66 68 70 74 77 63 55 56 53 53 56 65 75 80 83 85 79 70 56 40 39 47 51 53 55 63 70 73 74 73 67 58 49 44 42 39 38 52 74 86 90 90 85 83 81 79 81 84 86 84 84 89 92 92 93 92 92 88 87
24 28 23 22 20 20 20 14 16 16 17 16 10 7 5 6 4 4 4 4 9 11 9 10 11 9 9 8 8 17 31 38 38 41 43 47 57 63 67 71 73 77 73 69 74 68 63 64 61 68 75 80 86 86 81 73 60 42 39 49 58 60 59 66 72 76 75 71 64 54 48 48 46 41 36 40 64 86 91 89 86 84 81 79 83 85 86 83 83 87 89 91 92 92 90 89 90
31 36 21 14 17 21 24 22 18 15 15 14 10 7 4 4 4 4 6 10 12 12 11 10 11 11 10 12 19 30 34 35 37 40 44 49 56 62 66 73 75 74 70 72 82 75 68 67 63 68 75 81 85 83 80 75 63 43 41 56 65 65 64 69 74 76 74 69 61 53 53 54 51 48 43 38 53 77 87 90 87 85 83 79 80 81 82 82 82 83 87 91 92 91 90 90 88
33 35 19 10 15 18 21 21 19 17 14 11 8 5 3 4 5 6 9 13 13 12 11 10 13 12 13 20 31 41 40 36 38 41 44 50 59 65 67 72 71 69 68 69 81 75 60 60 62 69 75 79 77 78 79 74 64 45 46 61 65 65 67 72 75 74 71 67 59 58 61 61 60 56 51 49 57 72 84 91 88 86 85 81 79 77 80 82 83 83 89 93 91 91 90 89 87
31 27 15 10 13 15 20 19 15 15 12 8 7 4 3 4 6 8 9 10 11 11 10 12 13 14 21 30 35 42 44 40 40 39 42 53 64 67 68 69 67 66 66 69 81 67 48 52 58 68 74 72 72 75 77 73 63 48 51 62 63 66 70 73 74 72 68 65 62 65 70 72 74 68 61 66 74 78 83 89 89 89 86 84 81 80 82 81 82 87 93 93 89 89 90 87 86
22 17 12 12 13 16 24 21 12 11 9 6 6 4 3 4 5 6 5 6 8 8 10 13 13 16 25 31 35 40 42 45 45 42 46 60 67 68 68 67 64 64 65 73 76 53 41 47 52 64 66 66 72 76 75 70 60 50 56 63 64 68 71 72 72 69 64 64 66 72 79 83 82 78 76 79 86 84 80 82 85 87 87 87 85 85 84 79 82 90 93 94 86 82 88 86 77
14 13 10 10 13 16 20 18 11 9 7 5 4 3 4 4 4 4 4 4 5 7 9 12 13 18 26 32 42 45 42 48 52 52 60 70 74 74 74 72 67 65 68 78 69 45 43 50 55 61 60 64 73 76 74 67 58 54 61 65 67 69 70 71 69 65 63 65 73 80 85 86 82 81 83 84 87 83 78 79 77 77 79 82 83 82 80 79 84 90 93 95 84 77 87 83 70
11 12 10 10 11 12 13 11 8 7 5 5 3 3 4 4 5 4 4 4 4 6 7 12 12 17 31 39 46 47 45 51 50 56 71 77 77 78 76 76 74 70 76 83 62 43 51 59 63 63 62 69 73 73 69 63 59 60 67 68 68 71 70 68 66 65 68 74 81 84 84 85 83 83 84 86 88 83 81 83 78 75 75 77 80 82 81 82 85 88 92 90 83 81 85 79 71
11 11 11 12 10 10 10 8 6 5 4 4 2 3 3 3 5 4 4 4 3 4 5 11 10 17 36 46 52 51 50 53 48 58 76 77 75 75 75 78 80 79 84 81 57 48 66 74 71 67 68 73 71 69 65 61 63 67 70 69 71 71 68 66 67 71 77 82 86 85 83 84 83 83 84 87 91 88 84 84 80 77 79 82 84 86 86 86 85 88 91 87 84 86 83 78 78
11 9 11 14 13 11 9 9 6 5 3 3 3 2 3 3 4 4 4 3 3 4 3 8 10 22 43 52 56 54 52 53 54 70 80 77 76 74 75 81 84 86 84 76 58 59 81 86 78 73 72 72 69 66 65 66 70 71 70 69 69 66 65 70 75 79 81 84 87 86 85 85 83 84 88 89 92 92 87 84 80 76 79 84 85 86 86 86 89 91 91 88 85 86 83 80 83
10 9 10 14 14 10 7 8 6 5 3 3 2 2 3 3 4 4 4 3 3 4 3 6 7 18 43 55 56 54 55 58 67 80 81 78 82 80 78 82 86 88 82 69 57 67 88 90 86 83 77 72 69 68 70 73 72 67 66 65 62 62 67 74 79 83 85 85 84 87 86 84 84 86 91 90 90 90 87 84 82 80 81 84 85 85 84 82 84 87 87 86 84 83 81 79 80
9 9 9 10 8 8 6 6 5 5 3 2 3 3 4 4 5 5 4 3 2 4 3 5 9 21 45 57 56 56 56 65 76 78 81 82 84 86 85 86 88 89 79 61 57 77 91 84 82 83 80 79 77 75 74 69 64 61 60 61 63 68 72 74 77 81 86 85 81 82 81 81 83 84 87 88 90 92 88 84 82 82 83 83 82 80 79 77 75 76 78 80 82 79 76 77 77
9 8 9 9 7 6 6 5 4 4 3 3 3 4 6 5 5 5 5 3 2 4 2 6 17 33 52 57 57 58 54 68 79 76 82 84 82 85 88 90 89 87 76 62 63 77 80 74 78 80 82 87 81 74 68 59 56 57 60 63 69 72 73 74 74 78 84 82 75 75 76 80 83 82 85 86 89 92 88 84 82 81 80 77 75 71 70 73 71 69 72 75 78 76 74 75 72
8 7 9 11 10 8 6 5 4 4 3 4 4 4 5 5 5 7 7 5 3 3 5 10 17 30 45 46 50 55 53 68 79 79 85 85 84 86 89 94 93 89 76 64 67 73 72 68 72 77 85 89 79 68 61 56 56 60 64 67 69 69 71 72 72 75 75 71 67 70 73 80 86 83 85 86 86 88 86 85 84 80 74 67 64 62 59 61 58 56 65 70 71 74 73 70 67
7 7 9 10 11 9 8 5 4 4 3 4 5 4 4 5 6 8 8 6 5 4 9 15 17 25 35 35 40 50 55 68 78 82 87 88 89 87 89 93 95 95 77 63 73 84 75 61 64 73 85 87 74 66 62 60 62 64 65 66 67 68 70 70 72 70 65 65 65 67 72 81 87 84 83 84 84 86 86 85 82 78 69 58 56 57 54 51 46 46 54 59 61 69 71 66 66
6 7 9 11 10 9 8 5 4 4 3 4 5 5 5 4 5 8 7 7 8 8 11 15 22 31 41 44 46 55 59 67 76 80 84 86 87 85 87 88 92 99 89 79 87 91 74 64 75 81 86 81 66 65 62 59 61 63 63 64 67 69 71 71 69 66 65 68 67 68 77 83 82 81 84 83 83 84 84 84 80 76 65 55 56 56 54 50 48 48 50 52 53 62 69 65 65
7 8 10 12 11 9 6 4 4 3 4 5 5 5 5 5 7 9 8 11 11 12 16 20 29 35 43 52 54 56 61 66 73 76 79 82 84 84 84 84 87 94 96 93 93 91 76 75 89 87 84 76 69 73 64 56 59 64 67 68 71 73 71 69 67 69 73 70 68 75 84 86 82 83 85 82 83 83 82 83 80 75 65 57 58 58 57 54 51 51 51 51 51 58 66 63 63
8 9 11 11 9 7 5 4 3 3 5 6 5 5 4 4 7 10 10 13 11 14 25 29 35 38 43 54 54 55 63 67 70 74 78 78 80 80 79 80 82 88 94 94 92 88 79 82 91 88 82 76 77 78 66 61 65 71 74 71 76 78 70 69 73 77 77 67 68 81 84 83 86 86 85 85 86 85 82 80 79 74 67 62 61 59 59 58 54 51 51 52 53 57 63 63 63
8 9 11 10 6 6 4 3 3 4 5 5 6 4 4 4 4 10 12 14 16 20 29 31 34 37 43 49 48 55 65 67 67 71 76 75 76 78 76 76 76 81 89 91 91 88 84 87 90 88 82 78 79 77 71 70 72 77 79 77 81 80 70 76 81 79 78 70 72 83 82 80 83 81 82 86 84 84 81 76 76 72 68 67 64 63 60 59 57 51 53 56 55 56 62 67 65
8 9 10 9 5 5 4 3 4 4 5 5 6 5 4 4 3 8 13 18 23 24 25 26 31 34 40 44 46 56 66 66 65 67 73 74 74 76 76 77 76 78 85 90 92 91 88 89 92 90 82 80 81 80 81 80 79 85 89 85 85 81 77 85 87 81 80 73 74 80 77 77 79 76 78 80 78 80 81 76 73 71 74 74 68 72 72 66 60 53 56 61 63 64 67 67 62
8 8 8 7 5 5 3 4 4 4 5 5 6 6 4 4 4 6 10 19 22 21 22 22 27 32 37 44 48 57 63 64 65 68 75 77 73 74 78 79 76 76 80 85 90 91 88 88 95 95 86 84 87 87 87 86 87 92 91 86 85 81 77 84 86 84 83 75 76 78 76 80 80 79 80 80 78 75 79 80 75 76 84 84 74 78 85 80 71 66 66 68 72 74 70 62 57
7 8 6 6 5 5 4 4 4 5 5 6 6 5 4 4 6 4 6 13 14 16 22 23 25 28 34 44 50 58 63 60 64 72 75 76 75 75 78 80 77 75 74 75 84 90 89 85 89 95 92 89 92 94 91 88 90 90 88 86 88 82 74 81 85 82 81 77 77 76 78 83 80 81 83 83 80 72 75 83 85 87 87 85 81 79 87 86 80 80 78 73 73 71 63 55 57
7 8 7 6 5 5 4 4 5 5 5 6 5 4 5 5 5 5 5 9 11 13 19 21 22 25 32 44 52 57 59 57 64 72 68 68 76 78 77 79 76 73 72 71 77 85 89 86 86 93 96 93 93 95 92 88 88 87 83 85 89 84 81 88 89 84 80 77 76 77 80 84 83 85 87 86 81 74 76 82 89 91 82 80 84 81 85 87 81 80 77 74 70 63 57 52 54
6 7 6 6 6 4 4 4 5 5 5 5 4 4 5 5 5 4 5 6 9 12 14 16 20 26 31 41 53 58 57 57 62 66 62 64 72 75 74 75 73 70 70 71 72 78 88 90 89 92 92 93 93 90 90 89 87 86 82 85 90 87 88 94 95 90 78 73 77 80 82 84 87 90 89 88 82 78 78 76 82 84 78 77 79 77 80 82 82 80 74 70 65 58 55 52 52
5 6 6 6 6 5 4 5 5 5 5 4 4 5 4 5 5 4 5 4 7 10 12 14 18 26 33 41 52 57 58 59 61 59 59 63 66 68 70 70 69 68 70 75 73 75 88 94 92 92 90 91 94 88 89 87 84 87 87 91 95 89 90 95 96 92 79 79 85 82 79 79 85 88 85 84 81 79 77 73 77 79 76 76 76 74 76 79 79 77 73 65 58 55 52 51 53
4 5 5 5 5 5 5 5 6 5 5 4 4 5 4 4 4 5 5 4 6 9 11 10 15 26 34 47 57 61 64 62 60 59 60 64 65 65 68 67 67 68 70 76 74 73 87 95 93 93 92 93 94 89 88 87 86 91 92 94 97 90 91 95 93 90 85 86 88 80 76 77 85 90 84 79 75 73 73 71 75 80 80 78 76 73 74 77 71 70 77 66 54 54 49 49 53
4 5 5 5 5 5 5 5 5 6 5 4 4 4 4 4 5 5 4 4 4 7 10 7 20 36 36 49 65 69 74 66 58 63 65 65 65 64 64 63 65 67 70 75 72 73 83 90 92 93 94 96 93 87 87 93 94 93 92 92 94 90 90 91 87 87 84 82 83 77 75 77 83 92 89 83 78 75 76 74 76 82 81 78 77 74 75 76 67 69 84 74 60 58 49 48 53
4 4 6 6 6 6 6 4 4 6 5 3 4 5 5 5 5 5 3 5 3 6 9 4 23 43 40 53 68 72 76 67 59 63 66 65 64 62 60 61 65 65 70 76 72 74 82 86 92 94 93 92 89 89 90 95 96 92 90 89 93 92 85 86 86 89 90 85 82 77 75 76 78 86 91 90 83 78 82 85 84 84 79 75 76 76 76 72 66 73 86 78 64 59 50 51 57
5 5 6 7 7 6 5 5 4 5 5 3 4 6 7 5 4 4 3 4 3 6 8 5 21 42 49 58 65 68 69 65 64 64 63 65 64 61 59 62 66 65 68 77 75 76 82 82 87 91 92 91 89 90 89 89 88 81 79 81 87 89 86 85 81 83 87 82 78 77 74 73 74 78 84 90 90 86 89 90 85 82 78 74 75 77 77 73 69 75 85 77 62 58 56 56 59
6 6 7 7 9 7 5 5 5 5 5 3 4 7 7 4 4 4 3 4 4 7 7 9 28 44 54 58 59 60 59 64 73 68 62 64 62 61 60 61 64 67 69 76 77 74 79 82 83 89 92 89 82 80 79 78 76 71 75 82 83 85 88 83 73 73 77 73 72 75 74 72 72 73 75 85 93 92 89 87 82 80 78 74 74 76 75 75 75 74 81 83 70 61 63 63 61
6 8 8 7 8 7 5 4 5 6 5 4 4 7 6 4 4 3 4 3 4 10 6 13 37 46 51 57 57 56 56 64 68 62 58 59 61 60 57 60 65 70 71 75 75 72 77 81 81 87 89 79 72 73 74 72 70 69 74 83 82 85 89 80 73 75 77 79 80 79 76 72 71 72 75 83 89 84 81 84 83 81 81 77 76 76 74 77 80 74 74 85 83 71 69 73 70
7 8 10 9 8 7 5 4 4 4 4 4 4 6 5 5 4 2 4 3 4 9 6 20 43 47 51 59 58 57 59 63 59 53 55 55 57 60 58 62 69 72 72 73 73 70 75 78 76 80 83 77 72 72 71 67 69 69 69 75 78 79 78 72 70 71 72 80 87 85 80 74 76 79 79 82 86 82 79 81 83 85 84 81 79 76 78 79 80 79 75 82 88 78 70 72 73
10 9 10 9 7 6 6 4 3 3 4 4 3 5 5 4 4 2 4 2 4 7 6 27 48 48 54 57 57 57 56 62 58 48 52 55 56 60 63 68 70 70 72 72 70 68 72 76 76 76 78 76 71 72 72 66 67 71 70 71 73 69 63 61 62 63 67 71 76 82 80 77 80 83 83 83 85 86 82 77 81 88 86 84 82 79 82 80 79 83 81 83 85 75 71 73 73
11 10 10 9 7 6 6 4 3 3 4 4 4 6 5 4 3 2 3 1 5 6 6 30 48 48 53 53 53 55 54 63 60 44 46 54 58 62 66 70 68 66 71 70 67 71 74 77 77 77 81 78 72 74 75 69 65 68 71 69 68 64 56 56 57 58 64 66 69 77 80 79 79 80 83 85 88 90 84 77 81 88 87 87 86 86 88 81 79 83 80 83 84 76 77 80 76
9 8 8 9 8 5 4 4 3 2 4 5 5 6 5 5 4 3 5 3 6 7 8 34 50 46 49 49 48 52 55 60 55 52 56 53 55 63 68 70 67 69 75 70 70 74 78 84 86 81 82 81 76 71 71 73 67 63 67 63 59 57 55 56 57 58 63 66 70 78 83 82 80 82 83 86 93 91 82 81 86 89 86 85 88 91 90 81 79 80 77 80 82 78 79 80 77
6 7 7 6 7 6 4 4 3 3 5 5 5 6 4 5 5 4 6 6 9 7 8 32 48 45 44 42 44 54 56 54 57 68 71 59 55 63 70 71 71 78 80 78 82 81 78 83 84 82 86 88 79 67 65 71 68 65 68 65 58 55 53 54 57 60 64 67 72 78 82 80 78 83 85 88 94 90 82 83 89 90 82 80 88 91 88 83 80 76 76 80 80 80 83 84 81
7 8 8 7 6 6 4 4 3 3 6 6 5 5 4 5 5 4 5 7 8 8 8 19 34 41 40 35 42 53 54 57 65 72 70 61 58 63 72 76 79 84 83 84 87 80 74 70 70 80 91 87 74 63 60 63 63 64 64 63 59 51 45 48 55 60 65 72 76 79 81 80 79 82 83 87 94 92 82 78 83 87 79 77 87 90 89 89 81 73 78 83 78 78 83 82 78
10 10 10 10 7 5 5 4 3 4 6 8 6 5 5 5 5 4 5 6 6 9 8 9 25 41 40 35 40 48 55 65 67 66 68 64 59 64 75 81 84 85 85 87 81 74 74 70 69 78 80 73 63 60 63 60 56 57 57 58 54 48 46 49 54 59 64 71 76 78 81 81 80 81 81 87 93 90 78 69 76 84 78 76 80 82 87 90 83 79 83 83 77 79 83 81 76
12 12 13 12 8 6 7 5 4 5 6 8 7 6 7 5 6 5 4 6 5 7 7 7 26 43 40 36 37 43 62 72 65 63 71 70 65 68 75 82 85 84 87 89 81 74 74 74 74 71 64 60 57 59 64 58 53 56 57 56 49 48 52 53 54 58 59 65 70 74 78 80 81 80 83 86 87 87 81 71 75 81 79 76 74 78 86 88 83 82 83 81 80 85 85 81 77
14 14 15 12 8 6 6 6 7 8 9 11 9 9 10 7 7 5 4 7 5 7 9 7 22 41 39 34 37 49 66 69 62 67 73 73 72 73 76 82 84 81 85 90 84 73 68 70 72 64 59 61 59 59 57 50 53 57 51 45 43 46 50 51 54 53 51 56 63 66 70 74 78 77 79 85 85 86 87 79 76 81 84 79 73 77 88 90 84 80 80 80 79 81 83 82 74
16 15 15 12 10 8 5 6 9 11 13 11 10 14 14 9 7 6 6 8 6 7 11 8 23 41 35 35 48 60 67 62 59 66 69 69 72 76 80 82 82 80 84 90 85 73 66 67 65 62 68 71 68 62 54 52 56 52 44 43 49 51 51 51 51 47 45 51 57 60 63 65 69 69 70 78 80 78 78 77 73 72 76 77 72 71 78 84 84 80 79 81 79 74 79 88 80
16 12 12 10 10 9 7 7 8 12 14 11 12 17 17 11 8 8 8 8 6 8 10 12 32 43 34 42 57 59 61 61 61 64 65 67 71 78 81 80 82 84 86 88 85 76 72 68 59 60 71 76 73 68 63 61 56 50 48 50 52 52 52 53 50 47 46 50 52 55 57 58 61 63 63 65 68 67 66 67 65 62 62 66 67 68 69 72 77 77 74 76 78 74 75 84 83
14 9 8 8 8 9 10 10 9 11 14 14 13 14 16 14 11 10 9 8 8 10 9 11 31 42 34 46 58 53 52 56 60 63 64 65 69 74 75 76 84 88 87 89 87 78 72 67 55 53 64 69 68 68 66 59 53 52 51 48 49 50 52 52 49 46 44 46 48 48 50 53 56 58 59 60 59 61 61 60 60 59 58 57 59 64 65 63 65 69 70 70 72 74 73 74 76
11 8 7 7 7 7 8 9 9 11 15 17 15 13 17 15 10 8 7 9 10 10 10 10 25 39 36 44 55 53 51 52 56 62 64 68 74 75 72 75 86 90 90 91 88 77 67 63 58 52 58 65 66 64 59 55 53 53 49 44 45 46 47 47 45 45 45 45 47 47 49 53 57 58 58 58 57 57 60 61 59 58 57 54 54 57 59 60 62 65 70 71 71 72 72 71 70
10 7 7 6 6 7 8 10 10 13 20 22 17 16 20 17 11 9 9 12 10 10 12 9 19 35 37 41 51 53 50 49 56 65 72 77 81 80 77 81 88 91 92 90 86 74 58 56 60 53 47 53 62 61 56 55 54 51 48 44 42 42 43 44 45 48 49 48 48 49 49 52 57 60 58 58 57 59 61 63 61 60 59 56 54 56 61 65 69 73 77 77 77 76 75 76 74
8 8 8 7 7 7 8 10 9 15 24 22 16 17 21 19 13 10 11 11 9 11 12 10 23 38 39 43 50 50 46 51 64 73 76 82 85 84 83 83 85 89 91 89 87 76 59 54 58 53 41 42 56 64 61 58 54 51 49 44 41 42 43 44 47 48 49 49 49 48 49 51 56 59 60 59 60 63 64 62 61 61 61 59 57 58 62 69 73 79 83 80 80 80 80 80 75
7 8 8 8 11 10 10 11 11 18 22 16 11 13 18 23 22 18 16 13 12 11 7 15 40 51 47 49 50 46 48 59 73 76 76 84 89 90 89 82 80 86 89 89 90 85 76 70 62 54 49 48 60 70 65 57 54 52 51 48 44 44 45 45 46 47 48 49 49 50 51 53 56 57 58 60 63 65 64 60 58 61 62 60 60 61 64 71 75 78 82 81 81 82 81 80 74
8 8 9 14 16 15 14 13 13 18 18 14 12 14 19 27 30 28 26 24 22 15 8 24 49 52 48 54 53 48 53 66 74 74 77 83 85 89 88 82 81 84 86 87 89 88 86 83 72 59 55 57 67 74 66 57 55 55 55 53 48 45 46 45 45 46 47 47 48 49 49 52 54 56 57 60 61 62 61 59 59 63 64 61 62 63 65 71 76 77 78 80 80 78 76 75 70
10 9 12 19 19 21 22 18 17 19 17 13 11 16 24 30 29 26 27 28 27 21 18 32 49 49 45 50 52 50 54 67 74 73 76 77 77 81 80 78 80 82 84 85 87 89 87 86 81 73 70 74 78 78 69 59 57 57 58 58 51 46 46 44 43 43 43 45 46 46 47 51 53 54 57 59 60 61 62 63 63 65 66 64 62 61 61 64 69 71 72 73 74 70 67 64 59
10 7 10 17 19 22 23 21 22 21 18 15 15 23 32 33 28 26 26 27 27 25 24 28 40 49 47 44 49 54 57 68 74 72 74 72 70 71 72 73 74 75 81 82 82 86 85 82 82 82 84 87 83 76 70 64 60 60 61 60 54 48 47 45 43 43 42 43 46 47 49 51 53 55 58 60 61 62 62 63 65 65 64 62 60 58 57 58 59 61 61 63 64 61 58 55 50
11 6 9 16 18 18 21 25 26 23 22 21 21 31 36 31 26 24 26 28 27 27 27 23 28 43 50 48 52 57 61 68 71 70 75 76 72 70 70 69 69 72 79 79 76 79 81 78 76 78 82 83 77 73 71 68 65 64 62 61 56 49 48 46 43 44 44 44 47 49 51 52 53 56 59 60 58 57 58 60 63 64 60 57 56 55 55 54 54 52 51 52 52 52 51 48 46
14 9 10 12 12 14 22 27 25 22 26 24 25 35 36 31 28 23 24 29 30 30 31 27 26 36 48 52 55 57 59 64 67 70 79 83 79 74 68 62 65 72 76 76 74 72 72 72 71 75 80 79 76 73 72 70 69 69 67 62 55 48 48 47 46 48 48 48 51 52 53 52 53 55 57 57 53 50 52 55 58 58 54 51 50 50 50 49 49 47 46 47 46 44 44 44 44
13 12 10 8 9 14 20 24 23 23 26 26 31 37 34 32 31 25 25 33 38 40 42 40 36 39 44 46 48 50 50 55 64 73 81 83 84 84 75 64 65 70 70 72 73 69 67 69 70 76 81 79 77 75 73 72 71 72 69 62 53 48 50 50 52 53 52 52 55 54 54 53 52 54 56 55 52 49 49 51 52 50 47 44 44 45 45 45 45 45 45 44 41 40 41 43 45
11 12 9 9 14 18 18 23 26 26 27 27 28 30 32 33 30 26 30 37 42 43 45 49 50 48 46 48 54 55 54 61 72 83 86 82 85 90 82 69 67 67 65 65 67 66 69 71 70 73 77 77 76 76 75 72 71 72 71 63 54 50 52 54 56 56 56 57 56 54 54 53 50 50 51 51 47 44 44 46 47 46 44 42 41 42 43 41 40 40 40 41 40 41 43 45 48
8 10 10 10 14 18 19 21 22 25 29 26 22 30 43 41 32 31 33 33 39 43 47 56 59 50 45 58 74 78 77 82 84 87 88 82 83 87 79 68 64 62 61 62 64 67 68 66 64 69 74 74 75 76 74 71 71 72 71 64 55 52 53 53 53 54 58 60 58 55 55 52 49 47 45 43 40 39 40 41 42 42 41 41 40 39 38 37 36 36 38 40 40 41 42 44 47
10 11 13 14 15 17 20 22 18 19 28 27 23 39 54 45 32 34 35 31 36 44 50 59 62 53 48 61 78 85 88 91 88 87 85 80 80 80 70 59 53 51 53 56 58 60 60 57 57 64 71 72 72 73 71 70 70 71 70 63 56 56 56 51 47 47 52 57 60 60 55 49 46 44 42 40 38 37 37 37 37 38 39 40 40 37 35 34 34 35 35 35 36 38 39 40 42
11 12 13 14 15 17 21 24 18 14 23 28 32 51 63 47 34 38 44 44 46 53 55 55 58 63 66 70 77 84 84 80 79 80 79 78 78 72 62 54 47 44 45 48 50 50 49 49 50 55 62 66 68 68 69 70 68 69 69 63 57 56 55 50 47 47 47 51 57 60 56 52 48 44 42 41 38 36 36 34 34 35 38 39 39 38 37 36 37 37 35 34 34 37 39 39 39
Wind_Speed
8 7 6 7 9 10 9 6 4 5 5 7 8 8 10 14 14 14 10 3 1 3 5 7 2 2 4 6 7 9 16 12 8 5 4 5 11 20 26 29 30 29 27 28 29 27 26 25 24 24 25 26 25 24 24 23 23 23 23 23 22 21 21 19 17 16 15 13 13 14 14 13 13 13 14 14 14 14 13 12 11 11 10 9 10 9 9 9 9 9 9 10 10 11 10 10 10
7 7 7 8 10 8 5 5 5 5 7 8 8 10 12 13 15 15 8 3 2 5 4 2 4 1 2 6 9 5 12 14 12 8 8 14 18 23 27 27 28 28 27 28 28 26 25 24 24 24 24 25 25 24 24 23 23 23 23 22 21 21 20 19 16 15 15 13 13 13 13 12 12 12 13 13 14 14 13 11 11 10 10 9 9 8 9 8 9 9 9 9 9 10 10 10 9
10 9 9 9 8 8 4 5 6 6 7 8 8 11 12 14 13 9 5 3 4 8 4 4 4 2 2 3 5 3 8 12 13 9 9 16 15 18 26 27 28 27 26 26 24 24 23 23 24 24 24 24 24 24 24 24 23 23 23 22 21 21 20 18 16 15 14 14 14 13 12 12 11 11 11 13 13 14 13 11 10 10 9 9 8 8 9 8 8 9 9 9 9 10 10 10 9
12 12 11 9 6 6 5 5 7 7 8 7 8 10 14 15 10 4 2 5 8 7 1 1 1 1 2 2 5 9 10 9 12 10 7 13 16 21 26 27 26 26 26 23 21 22 22 22 24 23 24 24 25 24 24 24 24 24 23 22 21 21 21 18 16 15 15 14 14 13 12 11 11 11 10 12 13 13 13 11 10 9 9 9 8 8 8 8 8 8 8 8 8 9 9 9 8
12 13 13 10 5 3 4 5 6 8 8 8 8 3 3 3 2 7 9 6 3 1 2 1 2 4 1 6 8 6 8 8 12 13 10 16 23 26 26 25 24 24 25 22 21 22 23 24 23 23 24 24 24 24 24 25 24 24 23 21 21 22 20 17 16 15 15 14 14 13 11 11 11 11 12 13 13 12 12 11 10 10 10 9 8 8 8 8 8 7 7 7 8 9 8 8 7
12 12 12 10 6 4 5 6 7 8 10 12 10 7 7 8 9 10 7 2 1 0 4 4 3 2 4 8 9 6 9 7 8 9 12 20 26 26 24 23 23 24 24 22 21 23 26 25 23 24 24 24 24 24 25 25 24 24 23 21 21 21 19 17 17 16 15 14 13 12 11 11 11 11 12 13 13 12 12 11 10 10 10 10 9 9 9 8 8 8 7 7 7 8 7 6 6
12 9 7 7 5 4 6 7 9 7 11 13 12 13 5 8 7 5 1 2 3 3 4 4 4 2 5 8 9 11 14 11 7 8 17 25 26 25 23 23 23 24 24 22 21 25 27 25 25 24 24 23 23 24 25 24 24 24 23 22 21 20 18 17 17 16 15 14 13 12 11 11 11 11 11 12 12 12 12 11 10 10 10 10 9 9 9 9 8 7 7 7 6 6 6 5 6
14 8 3 6 5 5 7 8 10 8 11 13 13 12 2 8 5 2 3 3 3 3 7 6 4 2 7 11 7 9 15 14 11 11 22 28 25 24 23 23 23 24 24 23 23 26 27 25 26 25 24 24 24 25 24 25 25 24 23 22 21 19 18 17 17 16 15 14 13 12 11 10 10 10 10 12 13 12 12 11 10 10 10 10 10 8 8 9 8 6 6 7 5 5 5 5 7
13 8 4 6 6 6 8 8 10 10 13 12 13 8 6 6 2 3 6 4 2 1 6 9 7 5 10 15 9 8 10 12 12 14 25 28 25 26 26 24 24 23 24 23 25 28 27 26 26 25 25 25 25 25 25 25 25 24 22 21 20 19 18 17 17 16 15 13 12 12 11 10 9 9 10 12 13 13 12 12 10 10 10 10 10 8 7 8 7 6 5 5 5 6 5 4 6
8 7 5 5 6 7 8 8 8 10 13 13 12 5 3 3 2 5 7 8 5 3 6 8 9 5 13 15 8 6 8 10 13 18 27 27 24 27 27 26 25 24 23 23 27 28 26 26 26 26 26 26 26 25 25 25 24 23 22 21 20 19 18 17 16 15 15 13 12 11 11 10 10 9 10 11 11 12 11 11 10 10 10 10 9 8 7 8 7 5 5 5 5 6 4 4 5
6 5 6 5 7 7 7 8 8 9 11 13 11 4 1 3 2 4 7 9 7 6 7 6 7 10 16 12 6 5 10 12 15 23 26 25 24 26 27 27 24 24 23 25 28 27 24 25 26 26 27 27 26 25 25 25 24 23 22 21 20 19 18 17 16 15 14 13 12 11 11 11 10 10 10 10 10 11 11 11 10 10 10 10 9 8 8 8 7 6 5 5 5 5 4 4 4
6 6 6 6 7 7 8 9 9 11 10 13 8 3 2 5 4 7 8 9 8 8 7 7 6 9 13 8 6 8 11 13 21 26 23 22 24 23 25 27 25 22 23 27 29 26 23 23 23 25 26 26 26 26 25 25 24 23 22 21 20 19 18 17 15 14 13 12 13 12 12 12 11 10 10 10 10 11 12 11 10 10 10 9 9 8 8 8 6 6 6 4 4 5 4 3 3
6 7 6 7 7 7 10 10 9 10 7 8 2 7 5 5 3 8 8 10 9 9 9 8 4 6 9 8 6 7 11 17 25 25 21 22 22 22 24 24 24 23 25 28 28 25 23 23 22 24 26 26 26 26 26 25 24 23 22 21 20 19 17 17 15 14 13 13 13 13 12 12 11 10 10 10 10 11 11 10 10 9 9 9 8 8 7 7 5 5 5 4 3 4 3 2 2
7 7 6 7 7 9 9 9 10 8 6 2 3 8 9 3 6 6 7 10 10 10 10 6 11 12 11 8 6 5 9 21 26 25 24 23 22 24 23 22 23 23 25 28 28 26 24 24 24 25 27 26 27 27 26 25 24 24 22 21 19 18 17 16 15 14 13 13 13 13 12 11 11 11 11 11 11 11 10 9 9 9 9 8 8 7 7 6 5 5 5 5 5 5 3 2 2
8 6 6 7 7 9 8 9 10 9 4 7 3 4 6 4 5 2 7 8 8 8 4 5 10 8 9 6 7 7 12 23 26 26 26 24 24 24 21 22 23 23 26 28 28 27 26 27 26 26 26 26 28 28 27 25 24 23 22 21 19 17 16 14 14 13 12 13 13 13 13 12 11 11 11 11 10 10 10 9 8 8 7 7 7 6 6 5 4 3 4 5 6 6 5 4 3
7 6 6 7 8 9 8 10 9 9 4 8 5 3 0 6 4 3 9 8 10 6 4 8 8 5 8 5 9 14 17 24 26 28 29 25 25 22 19 20 20 20 26 29 26 25 26 29 27 27 27 26 28 27 26 25 23 21 21 20 18 17 15 14 13 12 12 13 13 14 14 13 11 10 9 9 9 9 10 9 8 7 7 6 5 4 3 3 2 2 4 5 7 8 7 6 4
7 7 7 7 9 9 8 10 7 7 5 6 5 5 4 7 6 6 7 9 11 2 5 7 11 11 13 11 14 18 19 24 27 28 27 23 21 19 18 18 17 15 21 25 23 22 26 29 27 27 26 26 27 25 25 24 22 21 20 19 18 16 15 15 13 13 13 14 14 15 15 13 11 9 9 8 8 8 9 8 8 7 7 5 4 3 2 2 2 2 3 5 7 9 9 8 6
7 6 7 8 8 9 10 11 8 5 4 6 7 5 6 8 2 4 3 8 10 1 5 10 16 14 15 16 16 16 17 21 23 22 20 20 17 15 14 15 17 15 16 19 19 19 25 27 25 26 25 25 25 24 24 24 22 20 20 19 17 16 16 15 14 14 14 15 16 16 17 15 12 11 9 8 7 7 7 7 8 7 6 5 4 3 3 2 2 2 2 4 6 9 9 8 7
8 6 8 8 10 11 12 11 7 3 8 6 3 1 6 4 3 2 3 8 9 5 8 14 14 14 14 15 15 14 15 15 18 17 16 17 16 15 14 14 16 17 16 17 20 21 25 25 22 24 24 25 25 24 24 23 22 20 19 19 18 16 16 16 15 15 16 17 18 17 18 16 13 12 11 9 7 7 7 7 7 7 5 5 4 3 3 2 1 1 2 3 5 9 10 9 7
8 8 8 8 12 13 15 13 8 4 7 6 3 2 2 2 1 1 3 5 5 5 8 11 10 12 12 11 11 12 12 13 15 14 14 15 16 16 15 16 16 18 19 17 20 24 25 24 23 24 24 26 26 25 24 23 22 20 18 18 17 17 17 17 17 17 18 19 18 16 17 15 14 13 12 10 9 8 7 7 7 6 6 5 4 3 3 2 2 2 3 5 7 10 11 10 8
8 9 9 11 13 13 15 10 8 7 6 5 4 3 4 4 3 1 2 3 2 4 6 12 14 13 13 12 10 10 11 11 11 10 13 14 15 16 14 16 16 18 19 17 21 26 26 25 24 24 27 28 26 25 24 23 23 20 18 17 18 18 18 18 18 19 18 18 16 14 14 14 13 13 12 10 10 9 7 7 7 6 6 5 5 4 3 3 3 3 5 6 7 9 8 7 9
7 11 13 15 15 14 12 7 6 6 5 3 5 8 6 2 3 6 6 6 3 4 4 9 16 14 13 14 11 11 10 10 10 9 11 13 14 16 15 15 16 17 18 18 22 26 28 28 26 24 28 29 26 26 25 24 23 20 19 20 19 19 18 18 19 19 18 16 15 13 13 13 12 12 11 10 11 10 8 8 7 6 6 5 5 4 4 5 5 4 6 7 7 7 6 6 9
9 10 13 15 17 16 13 8 3 2 5 6 8 12 7 5 4 10 8 6 6 7 15 16 16 13 13 14 11 11 11 10 9 9 11 14 15 16 16 15 15 16 16 18 21 24 27 29 28 23 25 28 26 24 24 24 22 20 22 21 20 19 19 20 20 18 16 15 13 11 12 12 12 12 10 10 11 10 10 8 7 8 9 7 6 6 6 8 8 8 10 10 10 9 7 7 9
12 11 13 15 16 16 14 10 3 2 7 10 10 11 5 5 7 6 8 7 9 10 16 17 15 14 14 13 11 11 10 10 9 9 11 14 17 17 17 15 15 15 15 16 19 23 24 27 30 25 25 29 27 23 22 24 23 21 23 20 18 20 19 19 20 17 13 12 11 10 11 12 12 11 9 9 9 10 11 10 8 10 11 10 9 8 7 9 10 12 12 11 11 8 8 8 9
14 14 13 14 14 15 13 12 9 4 7 7 9 12 6 6 10 7 9 8 10 11 10 13 15 15 14 13 11 9 8 9 10 11 11 12 17 18 16 15 14 14 16 16 17 20 22 26 30 27 27 30 26 24 23 23 23 21 21 18 15 18 16 15 17 15 11 10 10 9 10 10 10 11 11 10 10 10 12 13 11 11 12 11 11 10 9 10 10 13 12 11 11 7 8 7 10
12 14 15 15 15 14 10 9 11 9 7 7 9 12 10 8 12 10 8 9 8 12 8 9 16 17 14 12 9 8 7 7 9 10 10 12 14 15 14 14 14 13 15 15 14 16 19 23 27 28 27 26 23 23 22 22 23 19 17 16 14 15 13 13 14 12 10 10 9 8 7 8 9 9 10 10 10 11 11 11 11 11 12 11 12 11 10 11 12 13 13 10 9 8 8 7 9
10 16 16 16 16 14 12 10 10 11 11 11 10 11 12 10 10 8 6 14 11 10 7 10 13 17 16 14 10 7 6 6 8 8 8 11 12 12 12 12 13 13 14 14 12 14 18 20 23 25 24 22 21 21 20 20 20 17 14 13 12 12 11 12 12 10 10 10 10 9 8 9 10 8 7 8 8 9 8 7 9 10 12 11 11 10 9 11 11 13 15 11 9 8 8 8 9
14 17 13 13 15 15 16 14 11 11 11 13 12 13 12 10 11 10 9 15 10 8 7 11 12 16 14 15 11 7 4 5 9 8 6 8 9 11 11 12 14 13 13 13 11 13 17 18 18 21 22 21 20 18 17 16 14 14 13 10 10 10 10 10 12 11 10 10 11 11 11 10 11 10 8 8 9 8 6 7 8 8 11 11 10 9 8 10 10 14 20 13 8 7 9 9 9
15 16 12 12 14 14 17 15 12 11 10 11 12 12 11 11 14 13 12 16 10 8 11 11 13 15 13 12 8 7 5 8 9 9 8 8 9 11 11 12 14 13 12 11 11 14 15 16 16 18 20 19 17 14 11 10 8 9 9 9 8 8 10 10 11 12 11 12 13 12 11 11 12 12 11 10 9 8 7 8 9 8 10 10 10 10 8 9 9 14 19 8 6 6 8 10 10
13 14 11 11 12 11 15 15 14 14 10 10 10 8 9 12 16 14 12 16 12 11 11 8 12 15 14 11 8 7 8 8 6 8 10 10 9 10 11 13 14 11 12 12 12 14 13 14 16 16 16 13 13 12 13 14 12 9 8 9 7 8 10 10 10 11 11 11 12 11 9 11 12 11 10 10 9 9 9 10 10 8 9 11 12 12 10 9 8 8 10 5 7 7 7 10 10
11 12 10 9 9 9 13 15 16 15 11 12 12 7 8 12 16 15 13 14 11 11 11 8 13 16 15 13 12 10 9 6 5 7 11 11 10 11 13 13 13 12 14 15 14 15 14 14 16 17 15 13 13 13 13 15 15 13 14 12 9 8 9 8 8 9 8 8 8 8 8 9 10 9 9 9 9 10 10 10 10 9 10 11 12 12 10 7 5 6 6 6 4 10 8 8 9
8 9 9 9 9 9 13 16 18 17 13 15 15 8 8 11 14 17 16 15 12 12 12 10 16 16 14 12 12 9 9 8 8 8 12 10 11 13 13 12 14 15 16 16 17 16 14 14 17 20 17 13 13 12 11 13 14 14 15 13 11 10 8 7 7 7 6 5 5 5 5 6 6 7 8 8 9 10 10 10 9 9 10 11 11 11 9 6 5 6 4 7 3 6 9 10 10
8 8 9 9 11 10 11 15 18 20 15 16 17 9 8 10 14 16 18 18 15 13 11 11 18 14 13 10 10 9 7 7 8 9 10 9 13 12 13 15 15 17 17 18 20 17 16 16 17 18 16 14 13 12 10 11 13 12 11 10 10 9 6 4 3 3 4 4 4 4 5 5 4 5 8 8 8 10 11 10 9 8 11 11 10 10 8 7 6 4 4 3 3 2 8 11 11
8 8 9 10 14 11 10 13 16 21 16 15 17 12 10 11 15 16 18 23 17 13 11 12 18 12 12 11 10 9 8 7 6 9 12 11 14 13 15 18 17 19 18 19 21 18 19 18 17 17 16 15 13 11 9 10 10 10 8 6 5 4 2 1 1 2 2 2 4 4 5 5 4 6 7 6 7 10 11 11 9 9 11 11 10 10 8 8 6 5 6 6 4 5 8 9 10
9 9 8 9 13 14 13 14 13 21 19 15 15 14 14 16 16 15 11 18 15 13 10 12 17 13 13 11 10 10 9 8 4 7 14 15 16 15 17 18 19 19 17 17 19 20 21 18 18 17 16 15 12 10 11 10 9 7 6 4 3 3 2 2 1 2 2 1 1 3 4 4 6 7 6 6 7 10 11 9 9 9 11 11 9 9 9 8 7 6 6 6 5 7 7 8 8
14 12 11 10 11 13 14 15 12 18 17 15 14 13 15 16 17 12 4 9 9 10 9 11 15 12 12 11 9 10 10 9 5 3 11 15 17 17 17 17 17 17 15 16 19 23 24 19 17 16 15 15 12 10 11 9 7 6 5 4 4 4 4 3 3 4 4 2 1 2 3 4 7 8 7 7 7 9 10 8 8 9 10 12 10 9 10 9 8 8 7 6 5 6 6 7 8
18 13 12 13 12 11 14 16 13 16 14 13 14 15 15 14 16 14 10 12 10 10 8 10 15 13 12 11 11 11 10 9 10 18 12 9 16 17 18 17 15 15 16 20 24 24 22 19 16 15 13 13 12 11 10 9 7 5 4 4 4 5 3 4 4 4 4 3 2 2 2 3 6 8 8 7 7 8 8 7 8 9 10 11 10 9 10 9 9 10 9 6 5 7 8 8 9
17 13 13 13 12 11 14 16 13 14 10 10 14 15 14 13 13 14 12 13 15 12 10 9 14 16 13 12 12 12 11 8 14 16 3 9 13 16 17 16 14 16 19 25 29 24 22 19 18 17 13 12 13 11 9 9 8 5 3 3 4 3 3 5 6 5 4 4 3 2 2 3 5 7 7 7 7 7 6 7 8 9 10 11 10 9 10 10 9 9 9 7 5 6 9 9 11
13 10 12 11 9 11 12 15 15 11 7 8 13 13 12 13 13 13 14 11 10 13 12 9 11 17 14 12 12 13 14 13 11 10 8 9 13 15 15 15 16 19 22 27 29 25 23 21 19 18 15 14 15 12 10 11 9 7 4 4 2 3 6 8 8 6 5 5 5 4 4 4 4 5 6 7 8 8 7 8 8 8 10 11 10 10 10 11 11 10 9 10 7 5 6 8 10
10 9 9 9 9 9 9 12 13 8 5 5 9 9 9 11 13 13 12 11 9 12 13 9 10 18 16 14 13 14 17 14 10 10 7 8 12 14 14 16 17 19 23 27 29 27 24 23 21 19 16 16 16 14 14 14 12 9 6 6 6 7 8 9 9 6 5 6 6 5 5 4 4 4 5 6 8 7 6 5 5 7 8 8 9 10 9 10 12 12 11 11 12 10 7 7 9
8 10 11 10 10 11 10 7 8 8 6 4 7 7 7 9 14 13 9 11 15 11 12 12 10 17 16 13 13 15 17 11 11 10 7 8 11 13 15 17 18 19 22 25 27 27 25 23 23 22 19 18 18 16 15 15 13 10 6 5 8 8 6 6 6 5 4 5 6 7 6 6 6 6 6 7 6 7 7 5 3 5 6 6 7 8 9 7 9 11 10 10 12 13 11 8 7
8 12 15 15 15 15 12 9 10 6 7 9 7 7 7 10 14 11 8 13 15 10 11 12 11 17 15 12 12 15 15 11 11 12 10 10 13 14 15 16 17 18 21 23 26 27 25 24 25 25 23 20 19 17 15 15 13 10 9 9 8 8 7 7 5 3 4 5 7 7 7 6 7 8 8 8 7 7 7 5 2 3 4 5 5 7 9 7 7 7 7 7 9 10 13 13 10
8 11 15 19 20 18 15 12 9 6 5 7 8 8 7 7 12 12 13 15 11 9 11 10 15 17 14 13 13 13 12 11 10 13 12 12 14 15 14 15 15 17 20 23 26 28 27 27 27 27 25 23 21 18 15 15 14 12 11 11 10 9 9 8 5 4 5 6 6 6 6 5 6 7 7 7 6 5 5 3 2 1 2 3 5 5 6 6 6 6 6 6 7 7 10 14 12
8 11 15 18 21 19 17 17 10 6 5 6 9 10 7 6 10 13 15 14 11 11 12 11 15 17 16 15 16 15 13 11 10 13 13 13 14 14 14 16 16 19 22 23 26 29 30 31 30 27 26 25 23 19 16 17 16 12 10 10 10 10 11 9 6 5 6 6 5 4 5 6 7 7 7 6 6 5 4 3 2 3 3 2 5 5 4 3 5 7 7 5 6 6 7 10 12
11 15 15 15 16 18 16 14 7 6 6 6 8 11 7 7 7 8 12 12 12 13 12 12 14 18 19 16 18 19 16 13 12 13 13 11 11 11 11 13 15 18 21 23 25 29 31 31 31 28 26 26 24 21 19 18 16 12 9 10 12 13 12 9 7 6 6 5 4 4 6 8 8 7 7 6 5 5 4 3 4 2 1 1 6 7 5 3 4 7 6 6 6 7 8 8 9
12 17 17 12 13 14 13 9 5 5 5 7 9 9 7 7 5 6 9 10 11 11 10 12 13 17 18 16 17 17 15 13 12 13 11 9 12 15 12 10 13 15 19 24 27 28 30 31 31 29 26 25 25 24 21 18 15 12 11 12 13 13 11 10 9 7 6 5 4 4 6 7 7 7 6 5 5 6 5 4 5 4 4 5 7 8 6 5 5 6 7 8 9 8 8 7 7
13 15 15 12 10 10 9 8 6 6 6 9 11 11 9 7 5 5 7 8 8 9 11 9 10 18 17 14 14 13 12 12 13 13 11 10 14 19 16 13 13 15 20 25 27 28 30 30 31 30 27 25 25 23 22 20 17 14 13 14 14 14 12 10 10 8 7 6 4 4 5 5 7 7 6 6 6 6 6 5 6 6 5 6 7 7 6 5 5 7 8 9 9 9 9 8 7
12 11 11 9 7 7 8 7 7 7 6 10 13 13 11 6 3 1 1 1 3 7 12 10 16 21 16 12 12 11 11 14 14 12 11 11 11 14 16 16 15 16 20 22 23 25 26 28 29 28 26 27 25 22 22 22 19 16 15 14 14 13 12 11 10 8 7 7 6 5 5 6 7 7 7 6 6 6 6 5 6 8 7 7 8 7 6 6 6 8 8 8 9 9 9 10 10
9 9 7 6 6 7 7 7 7 7 7 9 11 12 9 4 4 3 6 9 11 4 6 14 21 20 16 13 11 10 10 13 14 11 11 11 9 10 14 16 15 17 19 21 23 23 22 24 26 26 25 26 23 21 22 21 18 16 16 14 14 13 12 10 9 8 7 7 6 6 6 6 7 7 7 6 6 6 6 6 7 9 9 8 9 8 7 8 8 9 9 9 10 10 11 12 13
9 8 6 6 6 6 6 7 7 6 8 9 8 8 5 4 6 5 5 9 12 9 9 16 20 19 17 15 12 10 10 11 11 11 11 10 10 13 16 16 16 16 17 20 24 24 24 24 25 26 25 23 22 22 22 20 18 17 16 15 14 13 12 11 9 8 7 6 6 6 6 6 7 8 7 6 6 6 7 8 9 9 9 9 10 10 10 11 13 12 11 12 13 13 13 13 13
10 8 8 7 5 5 6 6 5 5 6 7 7 5 2 4 6 6 7 7 8 7 8 11 16 19 16 14 12 10 9 9 9 9 10 10 12 15 16 16 17 17 15 17 21 24 26 27 26 27 26 25 25 25 23 20 19 18 17 16 14 13 12 11 10 8 7 7 6 6 6 6 8 8 7 7 7 7 8 8 8 9 9 9 10 10 10 13 15 15 13 14 14 13 13 13 12
8 9 9 6 6 6 3 2 2 2 2 3 5 2 2 3 6 8 8 8 8 7 6 7 10 16 17 14 12 10 8 8 8 9 9 9 13 15 14 16 18 17 15 15 15 18 23 26 26 26 24 24 26 26 23 20 19 19 18 16 14 14 13 11 11 10 8 7 7 6 6 7 9 9 8 7 7 7 8 8 8 9 9 9 10 10 11 14 15 14 13 14 13 12 13 13 13
5 8 9 8 8 7 3 2 4 3 2 3 3 4 5 4 5 8 9 9 8 6 7 9 9 14 17 14 12 10 10 9 8 10 8 6 8 9 10 14 16 16 15 14 14 15 18 21 22 20 18 18 20 21 22 20 19 19 17 16 14 14 13 12 12 11 9 9 7 6 8 9 9 9 8 7 8 8 8 8 9 9 8 9 11 11 11 13 14 13 12 13 14 14 14 14 13
5 6 7 8 9 7 3 2 4 5 5 4 5 6 6 5 4 8 11 10 9 6 9 11 11 12 13 11 12 12 12 12 11 11 7 4 2 3 4 7 12 14 14 14 14 14 14 14 15 16 16 16 17 18 19 19 19 19 17 16 16 15 13 13 13 13 11 10 8 8 9 9 9 9 8 8 8 9 9 9 9 9 9 9 11 11 11 12 13 13 13 14 14 14 14 14 13
9 4 3 5 7 6 4 3 4 5 5 4 8 9 5 2 4 9 12 11 11 9 10 11 9 10 10 9 9 8 7 8 10 9 4 3 5 2 4 5 7 11 12 13 15 13 11 11 13 15 16 16 16 16 17 17 17 18 17 16 17 16 15 15 14 14 12 10 9 10 10 9 9 9 9 9 9 9 9 9 9 9 9 10 11 11 11 11 12 13 14 14 13 14 15 15 14
11 6 4 6 4 3 3 3 4 5 4 5 8 8 2 4 1 6 11 12 12 9 8 9 9 9 10 8 6 5 7 9 8 6 4 6 9 9 7 9 12 14 13 14 15 12 11 12 13 14 16 16 15 14 14 14 14 15 16 16 16 16 15 15 15 15 14 12 10 10 9 9 10 9 9 9 9 8 8 9 9 9 10 10 10 10 10 11 12 12 13 13 13 14 14 14 14
8 6 6 6 3 3 3 3 4 5 3 4 4 4 4 5 5 5 10 10 12 11 8 9 10 9 8 9 8 4 5 7 7 8 8 8 9 12 14 14 15 16 16 15 14 11 11 12 11 12 14 14 13 12 12 12 12 14 14 15 15 15 15 15 15 15 13 12 12 11 10 9 9 9 9 9 8 8 8 8 9 9 10 10 10 10 11 11 12 12 12 13 13 13 13 13 13
7 7 7 7 4 4 4 4 5 5 3 2 1 3 4 3 5 7 10 8 10 10 6 8 12 10 6 8 10 7 7 10 10 10 11 9 9 14 14 10 9 12 13 13 11 10 10 10 9 10 11 11 10 10 10 11 11 13 13 14 14 15 15 15 15 14 13 12 12 12 12 10 8 9 9 8 8 9 8 8 9 9 9 10 10 10 10 11 12 13 12 11 12 13 13 13 12
Wind_Direction
224 237 224 220 230 250 238 212 241 213 224 251 243 249 242 239 245 253 244 208 236 20 319 272 40 323 294 2 323 31 51 45 37 34 75 118 128 116 113 115 118 122 129 142 150 150 152 153 155 157 158 160 161 159 157 158 157 156 154 150 149 149 149 144 138 136 134 129 124 123 123 121 119 119 125 128 126 122 119 118 112 111 113 115 118 114 110 109 107 103 100 97 98 97 96 97 89
219 222 220 233 234 245 237 198 247 229 213 241 240 244 251 243 235 242 235 201 157 80 15 344 40 313 342 337 301 5 58 56 65 74 97 119 117 116 116 116 117 119 130 143 147 149 152 153 157 158 159 160 158 157 158 160 159 158 155 151 150 151 151 146 142 140 136 133 130 127 123 120 118 118 124 131 132 126 123 122 116 116 118 119 119 117 117 114 112 107 102 100 101 98 97 101 97
225 231 221 222 230 237 246 211 238 250 228 233 238 229 238 253 243 238 244 263 58 74 66 51 12 295 176 223 290 11 73 67 80 87 108 117 117 123 119 116 118 121 131 138 140 146 149 152 158 158 159 158 156 159 161 161 161 159 156 153 152 153 153 149 146 143 138 136 133 129 124 121 117 117 122 131 137 132 128 125 123 123 123 123 121 119 120 119 116 109 105 104 102 98 97 103 104
231 247 229 209 218 222 234 230 228 249 247 243 248 216 214 242 243 200 103 37 45 67 116 77 70 151 249 280 44 59 73 68 76 81 107 111 116 126 120 115 118 124 131 132 132 141 148 152 157 158 159 157 157 162 163 163 162 159 157 155 155 155 154 151 149 145 141 138 135 131 127 124 120 119 119 126 134 136 131 126 125 126 124 124 123 121 120 121 120 115 110 108 103 100 101 103 102
236 252 238 226 234 225 235 238 232 241 246 251 263 253 195 257 45 87 76 42 29 69 292 268 166 144 279 10 43 55 59 64 70 71 92 106 116 122 117 116 120 126 130 130 130 142 151 155 157 157 157 157 161 164 164 163 162 160 158 157 156 156 156 154 151 146 142 139 138 134 130 127 122 121 120 122 127 133 131 127 128 129 128 128 132 132 128 124 124 126 120 111 105 103 106 104 102
238 247 232 236 267 300 269 239 238 237 242 252 267 312 23 52 53 62 69 34 133 320 303 278 276 103 101 61 66 62 43 53 70 73 100 110 119 121 119 120 123 127 130 129 133 148 153 155 157 156 157 159 163 164 164 163 162 162 160 158 157 157 158 156 151 148 145 142 141 136 132 126 121 122 124 125 127 131 132 132 132 134 137 137 134 130 135 135 128 130 125 117 112 110 108 103 107
231 235 206 225 257 274 258 247 246 241 241 244 258 278 338 61 60 54 46 228 162 186 238 264 301 21 94 91 83 63 50 56 62 72 106 116 122 121 121 123 127 131 132 132 142 154 153 155 156 156 158 160 162 162 163 163 163 162 161 159 158 160 160 156 151 149 147 145 143 136 130 127 128 129 131 130 132 136 134 137 136 138 145 143 134 124 136 145 139 135 130 125 124 122 111 100 106
232 244 198 218 234 225 235 250 249 253 247 239 247 254 45 64 54 355 299 233 193 183 195 209 250 255 87 91 89 68 59 69 78 83 103 111 114 112 117 121 125 133 131 135 149 154 152 155 155 156 158 159 161 161 162 162 163 162 162 161 160 163 160 156 153 151 148 145 141 135 134 135 137 135 139 137 139 142 134 134 136 138 142 143 143 138 144 152 154 148 137 133 135 137 117 101 103
231 242 225 230 238 235 235 245 244 253 256 252 253 237 117 111 153 265 298 280 244 310 213 186 194 219 101 96 94 88 70 75 92 96 103 108 111 114 121 120 118 126 126 135 150 151 153 156 154 156 157 158 159 159 161 161 163 163 162 162 163 162 159 156 154 151 147 146 143 142 142 141 137 133 145 148 148 148 136 129 131 134 135 136 139 144 146 152 164 157 140 135 136 141 128 109 104
225 225 232 240 237 248 242 242 242 248 254 258 255 239 87 90 134 219 255 273 258 255 239 190 183 165 102 99 89 89 83 93 100 94 101 109 117 124 125 120 115 117 124 141 150 149 152 155 155 156 156 157 159 160 162 162 163 163 163 164 163 160 157 156 153 151 150 148 146 144 142 139 140 139 144 152 156 155 143 130 127 131 133 133 134 140 143 147 156 145 132 129 135 149 150 134 115
223 215 232 248 239 248 247 246 241 237 245 255 246 197 105 93 93 254 248 263 264 253 249 221 188 120 99 98 100 94 87 100 95 89 100 108 118 128 126 121 116 116 130 144 148 149 150 153 156 156 157 159 160 161 162 164 164 163 165 164 163 161 157 155 154 154 152 149 145 141 136 134 138 139 138 144 155 157 148 133 128 132 135 136 133 134 139 141 142 136 140 142 151 164 164 151 133
229 219 214 244 246 243 249 255 248 241 228 232 234 137 152 136 151 263 257 252 261 267 249 216 198 126 109 96 104 107 100 100 90 93 103 106 112 123 126 123 117 119 134 146 149 149 145 150 155 156 160 162 162 162 164 165 166 166 166 165 163 161 159 156 156 154 150 146 141 136 131 129 131 135 135 135 145 150 144 137 136 138 139 141 136 133 137 140 142 148 161 162 168 178 174 159 151
236 236 219 236 248 254 256 259 263 268 249 226 184 87 95 105 182 250 244 240 242 255 246 206 156 101 104 92 100 110 112 104 100 107 108 105 107 111 118 121 120 126 139 149 150 144 143 151 157 159 163 164 163 164 167 168 168 169 166 165 163 161 161 158 157 153 147 142 137 134 128 127 129 129 132 132 137 141 138 140 144 141 142 146 145 145 148 150 153 162 169 168 177 193 190 162 157
233 245 248 249 249 257 260 265 271 272 270 273 92 114 113 153 238 258 249 241 227 233 252 191 112 100 109 113 114 113 114 105 109 116 107 106 108 108 114 121 128 137 145 150 151 148 150 157 160 163 163 163 164 165 168 169 169 170 167 166 164 161 161 157 155 150 142 139 136 133 128 127 129 127 130 132 135 138 140 147 150 147 149 153 156 159 161 159 162 171 170 168 184 197 185 161 160
235 249 256 261 261 258 255 261 269 272 295 48 50 158 118 228 232 288 262 256 247 233 263 80 96 117 134 142 135 137 121 107 110 111 105 106 107 110 116 124 133 140 150 154 154 155 157 162 164 162 162 162 163 166 168 170 171 170 168 167 165 162 159 155 152 148 142 141 139 135 129 127 127 127 130 132 136 140 145 154 156 156 159 162 163 164 166 166 174 189 185 179 189 192 172 157 160
236 255 254 256 261 260 256 251 254 262 272 65 8 295 54 258 195 229 247 240 252 223 123 79 68 87 106 100 115 129 126 114 116 113 108 108 107 112 115 126 132 135 153 159 157 156 160 165 165 161 161 160 162 165 167 170 172 170 169 167 165 161 156 153 151 147 144 143 141 135 128 125 126 126 127 129 135 142 149 157 163 163 164 165 164 164 164 166 173 190 197 197 199 195 174 153 147
230 244 254 256 251 251 253 250 247 251 239 99 28 355 302 266 177 203 243 242 256 206 120 101 82 83 87 76 93 117 126 124 126 122 117 114 113 115 116 130 136 138 156 162 159 158 164 166 163 161 158 160 164 168 170 171 170 170 170 168 164 158 154 153 149 146 144 141 138 132 124 122 123 123 126 130 136 146 151 156 163 164 165 163 163 168 166 159 152 167 187 197 202 197 180 157 147
230 228 239 248 248 249 247 255 267 288 354 63 42 19 264 271 167 170 214 242 257 135 94 83 84 87 89 93 103 118 128 129 135 134 129 125 123 125 125 135 143 151 159 162 162 160 167 168 160 157 154 161 169 170 171 172 171 169 169 167 161 155 153 150 146 146 143 138 137 133 128 126 127 131 137 142 147 152 152 158 164 165 165 163 168 178 182 162 150 170 172 181 194 193 181 160 147
230 233 233 239 245 253 251 265 286 14 34 37 30 317 238 285 23 107 211 232 233 182 105 87 92 99 98 108 119 125 130 139 149 147 139 136 135 135 138 140 144 154 159 161 165 168 171 169 161 155 157 167 173 170 169 173 173 167 165 163 157 153 152 149 148 146 141 140 145 142 137 137 141 146 145 145 156 160 162 166 165 165 167 172 182 189 195 186 169 181 168 175 185 185 177 159 153
223 235 239 239 242 257 261 278 307 341 2 341 347 354 249 300 292 171 241 232 211 186 128 126 136 122 117 118 119 124 137 157 165 156 138 138 141 139 142 145 146 153 158 163 169 174 172 169 164 158 164 174 175 169 167 173 171 164 162 161 158 156 155 152 150 147 145 151 155 147 142 145 152 157 154 153 161 164 169 172 170 172 178 186 190 197 209 212 213 179 167 171 167 172 171 167 179
213 225 241 247 245 251 255 281 311 283 296 300 322 326 258 254 271 313 200 190 193 209 189 174 152 130 132 131 131 138 152 167 169 154 130 136 144 140 143 143 146 150 156 164 168 171 172 172 165 162 173 178 176 171 169 172 167 163 165 164 163 159 156 155 152 153 155 158 156 147 148 151 156 166 164 160 167 168 172 179 181 180 184 196 192 196 225 246 233 185 175 175 164 170 182 188 190
223 229 237 249 256 259 262 300 317 294 320 307 282 277 282 346 310 277 215 174 205 197 150 142 130 127 139 136 144 148 159 170 160 147 133 144 147 139 141 140 144 148 154 162 163 168 176 175 166 166 177 178 176 173 172 174 169 168 169 167 165 159 157 158 157 160 165 161 154 149 154 158 161 173 172 167 175 177 176 183 188 185 187 201 207 195 203 244 251 216 214 223 214 211 220 208 190
233 242 239 245 254 262 280 307 341 3 305 280 265 263 297 349 275 266 248 182 192 141 106 115 125 131 137 133 147 151 162 174 156 150 150 151 146 141 141 142 149 152 158 162 160 166 176 179 174 172 179 180 176 173 174 176 174 171 171 168 164 162 162 162 161 162 166 160 158 159 159 161 166 174 177 173 177 183 182 181 190 202 196 193 212 213 211 236 247 235 235 242 238 229 215 187 185
231 243 243 246 249 254 267 279 299 93 249 255 267 269 289 296 263 262 264 221 179 137 119 133 137 136 139 137 150 155 163 166 144 147 157 148 141 144 146 149 154 155 159 159 157 164 172 181 182 178 178 179 176 173 175 177 177 174 173 168 165 169 165 158 157 156 158 155 160 167 160 158 161 166 174 177 184 194 196 195 206 219 209 198 206 216 225 231 237 236 233 240 241 223 196 182 182
231 241 246 250 251 252 253 256 257 239 242 241 252 265 267 263 265 253 255 237 169 154 149 141 137 141 141 139 148 155 162 156 144 155 162 143 140 147 150 152 155 156 158 157 157 160 167 176 180 180 178 177 176 176 179 179 177 175 174 169 166 174 160 138 141 144 149 162 167 162 158 155 154 164 176 183 189 197 203 210 220 227 222 216 214 218 227 227 237 241 237 242 241 209 187 188 175
229 238 244 247 251 256 257 253 252 248 251 247 237 251 254 250 264 261 259 263 199 158 171 172 154 148 137 134 142 147 152 148 146 161 158 139 145 151 151 156 156 156 153 153 158 158 163 170 175 179 179 177 175 177 182 180 178 175 173 169 165 169 150 121 127 136 143 165 173 159 160 161 160 176 185 184 188 196 201 213 220 225 227 222 220 223 220 224 232 234 238 241 222 197 188 178 161
243 242 242 242 249 255 254 243 240 248 246 244 241 242 244 237 249 250 232 256 239 143 169 215 165 139 134 131 127 126 135 153 159 168 157 140 149 152 150 156 151 149 147 149 157 156 157 164 172 176 176 174 171 178 180 175 175 171 167 163 158 149 129 119 128 136 144 160 173 170 177 179 175 176 180 185 192 195 194 206 215 226 229 217 218 221 217 230 225 226 245 238 206 197 180 159 151
253 254 253 246 251 251 248 238 224 240 239 231 239 244 242 232 236 233 222 247 236 142 203 218 139 123 131 124 120 116 116 188 171 162 168 145 148 155 153 151 145 145 146 148 153 148 148 154 166 173 174 171 168 176 176 170 163 155 155 147 143 135 123 133 140 145 157 167 180 185 185 182 179 170 163 182 195 192 183 201 213 227 233 224 223 220 226 237 220 241 259 242 194 181 161 153 153
253 257 260 249 251 249 246 240 222 231 234 220 227 242 241 231 236 229 225 242 215 167 221 208 137 126 126 114 108 112 145 212 184 161 174 152 147 157 151 143 143 145 142 141 145 139 138 147 158 165 170 167 162 161 153 152 134 124 143 131 130 137 135 151 152 151 162 170 181 186 183 181 184 176 162 169 187 189 185 204 214 222 236 236 231 225 229 227 216 250 259 228 153 146 139 139 147
255 252 255 252 252 247 242 237 225 228 231 217 218 234 234 229 237 229 228 239 205 179 220 200 138 128 123 126 132 143 171 200 195 169 157 144 149 152 140 136 139 142 136 133 139 138 129 137 149 153 154 141 134 135 118 122 125 121 141 135 138 149 147 162 163 162 167 169 178 180 183 187 189 186 171 163 172 182 188 208 220 223 230 225 222 221 218 221 224 238 245 209 143 137 128 129 136
249 243 241 246 249 248 239 227 218 224 223 211 217 234 235 227 226 219 226 238 193 177 221 186 133 126 128 143 147 162 168 162 212 179 140 141 147 135 130 131 131 129 131 132 140 144 130 126 134 132 129 114 114 131 126 128 133 133 140 141 148 161 164 172 169 172 177 176 183 181 185 192 194 198 190 177 177 187 194 210 223 224 221 212 208 212 210 218 223 195 235 280 161 139 126 125 124
239 237 235 232 240 250 245 230 211 215 218 205 214 234 236 237 233 213 210 229 195 182 224 178 136 131 134 138 139 156 149 149 207 170 135 141 134 127 128 123 122 126 134 142 146 144 132 123 124 120 119 119 120 123 126 135 138 137 141 143 156 170 171 165 159 168 179 185 194 202 206 208 214 214 208 199 196 204 208 213 222 224 222 211 199 203 202 205 207 187 234 298 278 152 123 116 111
226 227 238 236 237 239 246 242 212 205 213 203 209 228 233 237 246 224 200 215 203 186 218 159 135 138 133 131 139 150 139 153 196 160 143 140 122 119 120 117 124 137 147 152 149 141 129 121 121 121 116 116 122 120 120 131 139 147 147 148 164 173 171 167 167 186 196 193 192 216 236 243 244 219 210 207 203 209 218 219 214 221 229 215 195 196 199 200 196 167 175 212 268 193 125 118 112
223 219 233 239 244 241 234 246 217 196 205 208 203 214 243 237 242 245 209 204 196 184 208 149 135 141 135 140 143 146 150 156 184 158 143 128 116 113 117 124 139 153 154 150 145 130 119 118 117 119 114 111 121 130 126 118 129 143 140 144 159 157 174 218 304 306 283 224 196 214 255 268 240 211 205 203 200 205 217 218 199 203 224 215 195 193 196 201 190 143 156 182 180 149 119 111 118
232 218 227 231 242 248 237 248 223 187 193 212 205 201 234 245 248 266 225 190 179 179 197 142 137 146 139 145 144 146 149 142 191 172 134 117 115 121 128 138 152 155 142 136 136 117 107 111 113 117 120 119 122 132 131 121 125 126 114 122 127 119 139 137 79 36 32 334 237 230 255 246 218 214 203 187 191 201 209 207 185 187 211 210 195 187 186 190 180 149 162 185 156 130 110 102 122
241 229 230 225 230 242 238 251 228 179 184 207 215 210 217 239 248 252 189 153 171 192 189 135 141 153 142 145 146 143 137 144 176 102 102 117 127 135 136 143 153 141 115 111 114 105 100 99 103 115 126 129 129 132 126 115 114 103 98 119 122 123 124 105 78 50 50 24 9 203 223 206 203 211 199 182 187 201 208 203 182 181 199 206 195 182 185 186 177 168 178 188 148 123 123 116 123
250 254 250 234 228 240 232 244 229 182 186 202 211 225 214 223 243 230 183 161 186 216 201 150 151 154 148 151 147 136 135 144 98 59 57 128 136 136 138 140 138 118 102 94 92 98 104 105 117 127 128 131 130 122 112 105 112 109 117 155 149 128 110 104 90 64 62 48 68 150 192 189 194 198 187 174 175 190 199 192 184 184 194 206 200 182 179 183 189 180 171 177 164 146 144 135 134
256 269 274 246 223 237 233 238 228 178 183 205 203 222 221 217 230 232 217 186 181 199 216 196 166 154 151 154 147 134 129 117 88 78 116 182 141 133 136 130 115 106 101 94 96 111 122 126 139 137 127 127 121 109 105 113 124 130 142 209 212 170 120 131 122 93 81 75 84 116 143 169 176 182 182 168 162 171 178 176 179 189 200 209 204 181 166 168 183 183 160 158 183 170 146 141 151
258 260 274 267 228 230 233 235 228 182 173 216 203 208 224 229 227 227 236 229 186 174 204 227 162 146 152 155 149 137 120 100 104 138 179 170 140 135 131 117 110 112 110 108 112 124 134 139 139 132 126 124 119 108 108 123 129 123 89 4 316 130 93 98 107 104 98 93 94 102 125 148 148 167 175 158 151 158 181 185 168 173 194 203 199 182 167 164 168 173 165 157 169 186 148 144 168
253 254 258 271 250 231 231 231 220 176 151 236 227 217 221 231 235 227 222 243 235 174 185 219 160 147 157 158 154 139 119 110 141 162 149 133 134 135 130 120 122 126 123 124 124 124 133 142 138 134 130 123 123 115 113 125 122 103 76 38 75 103 87 84 92 96 99 101 100 94 103 121 122 134 142 141 149 159 182 192 162 158 171 186 197 187 175 175 174 172 174 166 163 172 162 152 176
236 247 247 258 260 244 236 202 155 135 144 202 246 255 241 227 233 224 195 234 242 182 177 217 171 147 154 153 146 127 118 135 162 151 134 137 133 134 138 133 136 139 130 128 128 125 128 135 140 141 133 126 128 122 118 125 121 112 109 89 95 102 100 99 94 95 108 111 106 95 91 97 93 94 107 121 138 151 156 170 186 176 173 181 195 192 182 184 186 176 174 178 172 168 158 152 182
234 235 242 254 266 262 246 188 150 159 185 180 202 241 246 233 234 224 197 233 233 173 187 214 148 138 153 144 123 115 125 159 160 138 144 154 142 141 149 146 141 135 129 129 133 132 130 133 142 143 136 131 130 128 125 127 132 135 127 119 128 141 139 132 126 125 124 109 101 97 91 88 86 85 90 100 106 121 132 145 179 161 160 171 175 192 197 196 194 182 180 185 176 164 147 147 184
245 228 228 244 259 267 268 243 204 208 225 189 191 226 243 232 228 222 218 226 213 180 208 193 131 137 155 134 113 118 143 167 152 139 148 152 148 150 154 150 137 128 129 134 139 141 139 142 148 148 142 137 136 137 140 145 150 150 146 152 165 159 136 125 123 104 89 90 93 95 94 93 94 90 87 94 100 105 115 125 150 146 118 125 141 169 188 189 185 182 187 181 168 162 144 148 174
246 236 218 226 246 255 266 268 238 190 224 223 203 218 241 241 221 216 218 215 201 203 209 181 145 146 153 140 131 141 160 166 149 144 152 154 151 149 151 150 140 138 140 140 146 148 146 146 150 152 147 143 144 145 148 157 158 156 161 161 150 134 122 117 117 101 92 102 106 106 112 106 98 94 90 92 98 105 121 128 151 210 223 165 155 159 158 177 188 184 184 176 167 163 150 152 160
238 245 229 213 230 243 253 264 240 187 221 238 215 211 229 250 221 208 219 212 207 210 200 189 172 155 155 150 142 149 160 161 146 140 146 144 128 120 136 154 149 147 146 143 149 152 147 146 148 150 149 147 148 147 145 151 151 150 152 138 125 126 130 134 133 123 114 114 106 92 97 98 92 89 93 95 96 101 112 114 118 159 283 122 144 147 148 161 180 178 167 152 151 147 143 149 147
235 246 248 226 215 231 246 255 230 204 231 237 224 211 226 247 208 198 219 211 212 206 192 204 188 155 152 146 139 147 152 147 131 123 124 118 123 124 131 162 161 151 148 146 152 156 153 150 149 149 151 152 151 148 146 148 147 147 145 138 135 137 141 142 133 127 124 119 104 84 86 96 100 95 93 85 79 93 103 108 111 92 40 60 102 118 125 132 149 154 141 132 128 123 129 135 131
232 241 249 236 216 222 238 248 236 220 229 233 227 217 229 241 197 201 211 202 216 198 184 199 154 132 137 134 136 145 138 125 114 116 124 130 142 141 142 169 174 156 152 152 153 157 157 156 154 152 155 159 157 149 148 153 152 150 148 144 145 145 143 137 132 136 139 131 125 119 115 118 113 106 103 87 77 93 104 105 108 101 80 77 87 96 109 116 124 125 121 123 120 112 116 116 116
223 241 245 227 213 222 223 227 234 231 228 231 226 216 226 237 191 233 297 199 254 210 187 159 115 117 127 127 129 136 126 115 117 128 139 146 153 147 152 175 180 163 159 156 153 154 157 159 158 156 158 163 159 153 156 159 155 152 151 146 145 145 142 140 142 147 150 146 146 149 143 130 121 115 113 107 101 106 108 104 102 101 95 89 93 96 100 107 113 114 111 112 109 104 110 110 108
221 240 248 226 207 214 216 211 218 234 237 232 226 214 217 221 150 77 30 27 15 5 152 125 117 124 132 130 128 131 126 120 126 140 147 152 159 157 166 177 182 175 165 157 154 153 154 156 157 159 161 163 160 157 162 161 156 156 152 146 146 147 144 144 147 149 152 150 150 154 151 143 138 126 117 115 120 121 110 98 97 102 99 94 101 101 94 100 109 110 108 106 100 98 105 106 104
229 225 221 220 215 211 215 213 211 230 229 218 223 221 199 144 127 109 71 42 27 28 74 104 122 133 135 137 134 127 129 128 131 143 150 152 159 166 172 176 184 185 170 159 157 157 158 156 156 161 164 167 166 162 164 162 159 161 155 148 148 148 146 144 146 149 148 148 154 159 157 148 136 124 120 122 121 117 108 99 96 101 105 99 99 101 101 101 99 97 97 98 97 95 99 100 100
219 229 229 219 220 225 225 223 220 237 232 207 204 219 185 127 122 105 91 74 53 43 58 91 118 129 131 133 130 124 127 128 130 144 151 152 161 171 176 181 189 188 177 170 161 156 160 160 161 164 166 171 169 162 162 163 162 163 160 152 148 148 148 147 146 146 143 145 152 154 148 138 127 121 120 117 107 104 106 106 103 103 107 105 100 100 104 104 100 97 96 98 100 101 104 102 101
202 218 234 226 217 225 229 238 227 240 279 224 186 156 59 118 132 116 105 90 75 64 66 89 113 126 131 130 132 135 138 138 137 139 143 154 165 173 182 186 185 180 178 179 169 160 161 164 167 166 163 168 168 159 159 163 161 161 159 152 149 151 149 146 145 145 146 147 146 144 137 130 124 120 119 116 110 111 114 115 115 113 110 106 104 103 99 99 102 102 101 103 104 106 108 102 98
205 206 222 222 215 221 219 203 203 205 254 238 160 110 108 146 155 143 135 109 86 62 61 73 87 110 121 129 141 147 152 156 144 132 143 175 172 175 197 188 169 165 171 175 177 174 167 166 167 159 152 158 161 155 156 160 157 154 154 151 151 151 147 146 146 145 145 142 138 135 130 125 123 121 121 121 116 116 119 117 117 115 109 104 105 105 99 99 103 104 102 101 102 104 104 100 98
230 212 217 215 207 215 222 215 216 216 231 216 157 153 161 168 175 161 146 120 103 82 64 68 73 89 102 118 136 148 161 161 143 133 150 173 112 17 278 205 161 158 168 172 175 176 168 161 156 147 141 144 149 150 152 155 153 150 150 150 151 150 148 148 147 145 143 141 139 133 125 124 127 128 130 128 121 117 117 117 116 113 110 109 110 109 107 109 111 109 105 103 105 107 104 102 102
232 236 245 235 212 205 202 208 229 223 231 215 174 179 191 196 179 163 151 132 116 102 89 86 83 89 95 98 106 118 137 132 121 123 140 140 110 53 291 248 186 166 165 168 169 166 152 142 140 138 133 132 138 141 143 146 145 144 146 149 151 152 152 152 151 150 147 143 141 136 133 134 133 136 138 131 126 123 120 121 121 117 114 113 114 114 114 117 117 114 112 112 115 116 113 111 109
228 245 257 252 231 215 217 216 234 229 231 227 194 181 146 7 346 156 150 141 128 118 109 109 111 115 117 109 90 76 82 90 104 129 167 165 150 160 189 207 198 177 163 162 163 156 140 134 135 131 123 125 133 134 136 138 135 136 143 149 152 153 155 158 160 158 150 146 147 146 149 149 140 139 142 137 135 136 132 130 129 126 123 120 119 119 120 121 120 118 118 121 122 121 119 116 113
219 225 234 241 207 185 222 231 240 237 226 233 218 160 86 9 358 95 121 123 122 125 127 126 127 123 118 118 118 105 102 122 153 169 174 170 156 162 178 189 183 167 158 159 158 154 145 140 139 129 121 124 128 128 131 130 131 137 144 150 154 154 157 160 160 156 152 154 158 157 155 153 151 152 150 148 148 146 142 140 139 136 132 130 128 125 124 124 124 125 124 124 125 123 122 120 119
226 215 222 236 218 195 216 222 230 238 249 266 248 112 95 348 349 75 96 92 95 103 115 121 116 108 104 122 137 159 170 164 171 166 158 163 167 168 174 175 156 146 147 146 146 149 147 149 154 146 135 129 124 124 126 127 135 143 148 155 156 155 158 159 154 151 156 161 165 167 160 153 160 166 160 159 161 158 157 152 147 143 137 135 132 129 130 129 127 128 127 128 131 128 125 124 122